Weather History for Kingston, Jamaica

Change the Weather History Date:

Saturday, November 26, 2011

  Actual Average Record
Temperature  
Mean Temperature 80 °F -  
Max Temperature 89 °F 84 °F 90 °F (2012)
Min Temperature 72 °F 75 °F 68 °F (1996)
Cooling Degree Days 16    
Growing Degree Days 30 (Base 50)    
Moisture  
Dew Point 67 °F    
Average Humidity 60    
Maximum Humidity 88    
Minimum Humidity 38    
Precipitation  
Precipitation 0.00 in - - ()
Sea Level Pressure  
Sea Level Pressure 29.89 in    
Wind  
Wind Speed 3 mph ()    
Max Wind Speed 8 mph    
Max Gust Speed -    
Visibility 5.7 miles    
Events      
Averages and records for this station are not official NWS values.
T = Trace of Precipitation, MM = Missing Value Source: Averaged Metar Reports

Daily Weather History Graph

Daily Weather History Graph

Search for Another Location

Airport:

Trip Planner

Search our weather history database for the weather conditions in past years. The results will help you decide how hot, cold, wet, or windy it might be!

Date:

Astronomy

Nov. 26, 2011 Rise Set
Actual Time 6:18 AM EST 5:29 PM EST
Civil Twilight 5:55 AM EST 5:52 PM EST
Nautical Twilight 5:29 AM EST 6:19 PM EST
Astronomical Twilight 5:02 AM EST 6:46 PM EST
Moon 7:40 AM EST (11/26) 7:05 PM EST (11/26)
Length of Visible Light 11h 57m
Length of Day
11h 10m
Waxing Crescent, 3% of the Moon is Illuminated
Nov 26
Waxing Crescent
Dec 2
First Quarter
Dec 10
Full
Dec 17
Last Quarter
Dec 24
New

Hourly Weather History & Observations

Time (EST) Temp. Heat Index Dew Point Humidity Pressure Visibility Wind Dir Wind Speed Gust Speed Precip Events Conditions
12:00 AM 78.8 °F - 64.4 °F 61% 29.92 in 6.2 mi Variable 1.2 mph - N/A   Mostly Cloudy
1:00 AM 78 °F - 70 °F 69% 29.91 in 4 mi WSW 1.2 mph - -   Scattered Clouds
1:00 AM 77.0 °F - 69.8 °F 78% 29.89 in 6.2 mi Variable 1.2 mph - N/A   Mostly Cloudy
2:00 AM 77.0 °F - 62.6 °F 61% 29.89 in 6.2 mi West 3.5 mph - N/A   Mostly Cloudy
5:00 AM 77.0 °F - 66.2 °F 69% 29.86 in 6.2 mi NNE 3.5 mph - N/A   Scattered Clouds
6:00 AM 78.8 °F - 66.2 °F 65% 29.89 in 6.2 mi Calm Calm - N/A   Scattered Clouds
7:00 AM 74 °F - 69 °F 81% 29.92 in 4 mi SW 1.2 mph - -   Haze
7:00 AM 73.4 °F - 69.8 °F 88% 29.92 in 6.2 mi Variable 1.2 mph - N/A   Scattered Clouds
8:00 AM 78.8 °F - 66.2 °F 65% 29.92 in 6.2 mi Variable 1.2 mph - N/A   Partly Cloudy
9:00 AM 82.4 °F 85.4 °F 68.0 °F 62% 29.95 in 6.2 mi North 1.2 mph - N/A   Partly Cloudy
10:00 AM 84 °F - 68 °F 49% 29.95 in 4 mi SW 5.8 mph - -   Haze
10:00 AM - - - N/A% - - North - - N/A   Unknown
11:00 AM 86.0 °F 89.4 °F 68.0 °F 55% 29.89 in 6.2 mi SW 8.1 mph - N/A   Partly Cloudy
12:00 PM 86.0 °F 89.4 °F 68.0 °F 55% 29.89 in 6.2 mi SW 8.1 mph - N/A   Partly Cloudy
1:00 PM 88 °F - 66 °F 38% 29.88 in 4 mi SSW 8.1 mph - -   Haze
1:00 PM 87.8 °F 90.4 °F 66.2 °F 49% 29.86 in 6.2 mi SSW 8.1 mph - N/A   Partly Cloudy
2:00 PM 87.8 °F 91.4 °F 68.0 °F 52% 29.83 in 6.2 mi SSW 5.8 mph - N/A   Partly Cloudy
3:00 PM 86.0 °F 89.4 °F 68.0 °F 55% 29.83 in 6.2 mi South 4.6 mph - N/A   Partly Cloudy
4:00 PM 86 °F - 70 °F 49% 29.85 in 4 mi WNW 1.2 mph - -   Haze
4:00 PM 86.0 °F 90.4 °F 69.8 °F 58% 29.83 in 6.2 mi WNW 1.2 mph - N/A   Scattered Clouds
5:00 PM 86.0 °F 89.4 °F 68.0 °F 55% 29.83 in 6.2 mi West 4.6 mph - N/A   Partly Cloudy
6:00 PM 84.2 °F 86.6 °F 66.2 °F 55% 29.86 in 6.2 mi NW 6.9 mph - N/A   Scattered Clouds
7:00 PM 82 °F - 67 °F 51% 29.88 in 4 mi NW 8.1 mph - -   Scattered Clouds
7:00 PM 82.4 °F 84.6 °F 66.2 °F 58% 29.86 in 6.2 mi NW 8.1 mph - N/A   Scattered Clouds
8:00 PM 82.4 °F 86.3 °F 69.8 °F 66% 29.95 in 6.2 mi North 8.1 mph - N/A   Partly Cloudy
9:00 PM 80.6 °F 82.3 °F 64.4 °F 58% 29.89 in 6.2 mi WNW 3.5 mph - N/A   Partly Cloudy
10:00 PM 80 °F - 65 °F 52% 29.90 in 4 mi West 5.8 mph - -   Scattered Clouds
10:00 PM 80.6 °F 82.7 °F 66.2 °F 61% 29.89 in 6.2 mi West 5.8 mph - N/A   Partly Cloudy
11:00 PM 80.6 °F 83.9 °F 69.8 °F 70% 29.89 in 6.2 mi WSW 3.5 mph - N/A   Partly Cloudy